Location: Natural Bridges National Monument
(37.6093°N, 109.9767°W)
Time: 09:11:39
(UTC-06:00)

Cosmos 1727 Rocket - Visible Passes

Search period start: 29 March 2017 00:00
Search period end: 08 April 2017 00:00
Orbit: 960 x 997 km, 82.9° (Epoch: 27 March)

Date Brightness Start Highest point End Pass type
(mag) Time Alt. Az. Time Alt. Az. Time Alt. Az.
29 Mar 6.6 06:39:07 10° SE 06:44:10 26° E 06:49:12 10° NNE visible
31 Mar 7.4 05:50:09 10° E 05:52:02 11° E 05:53:56 10° ENE visible
31 Mar 7.2 20:16:29 10° NW 20:19:41 15° W 20:22:53 10° WSW visible
01 Apr 6.7 06:13:08 10° SE 06:17:55 23° E 06:22:41 10° NE visible
04 Apr 6.7 05:47:12 10° SE 05:51:40 21° E 05:56:06 10° NE visible
05 Apr 5.6 06:11:57 10° SSE 06:17:42 39° E 06:23:25 10° NNE visible
07 Apr 6.7 05:21:19 10° SE 05:25:25 18° E 05:29:30 10° NE visible
